Location: Columbia
(38.9520°N, 92.3340°W)
Time: 19:25:03
(UTC-06:00)

Tiangong 1 - Visible Passes

Search period start: 27 November 2014 00:00
Search period end: 07 December 2014 00:00
Orbit: 368 x 391 km, 42.8° (Epoch: 27 November)

Date Brightness Start Highest point End Pass type
(mag) Time Alt. Az. Time Alt. Az. Time Alt. Az.
27 Nov 1.4 06:00:34 22° WNW 06:02:21 53° NNE 06:05:24 10° E visible
28 Nov 3.0 05:02:23 28° ENE 05:02:23 28° ENE 05:04:10 10° E visible
28 Nov 1.2 06:34:48 10° WNW 06:37:56 68° SSW 06:41:00 10° ESE visible
29 Nov 1.0 05:36:14 56° NW 05:36:45 73° NNE 05:39:52 10° ESE visible
30 Nov 4.3 04:37:55 14° E 04:37:55 14° E 04:38:31 10° E visible
30 Nov 1.8 06:10:02 17° W 06:12:03 40° SSW 06:15:00 10° SE visible
01 Dec 2.2 05:11:41 42° SE 05:11:41 42° SE 05:13:53 10° ESE visible
02 Dec 2.5 05:45:24 24° SW 05:45:46 24° SSW 05:48:22 10° SSE visible
03 Dec 4.2 04:46:59 13° SE 04:46:59 13° SE 04:47:24 10° SE visible
04 Dec 3.8 05:20:40 11° S 05:20:40 11° S 05:20:55 10° S visible
